Regional Weather Roundup
Issued by NWS State College, PA

Home | Current Version | Previous Version | Text Only | Print | Product List | Glossary On
Versions: 1 2 3 4 5 6 7 8 9 10 11 12 13 14 15 16 17 18 19 20 21 22 23 24 25 26 27 28 29 30 31 32 33 34 35 36 37 38 39 40 41 42 43 44 45 46 47 48 49 50
000
ASUS41 KCTP 010010
RWRCTP

REGIONAL WEATHER ROUNDUP
NATIONAL WEATHER SERVICE STATE COLLEGE PA
800 PM EDT FRI JUL 31 2015

Note: "fair" indicates few or no clouds below 12,000 feet with no
significant weather and/or obstructions to visibility.

* = STATION THAT DOES NOT REPORT PRECIPITATION /E.G. RAIN...SNOW...ETC/
    THUNDER OR FOG.

PAZ002>004-007>009-013>016-020>023-029>032-010100-
WESTERN PENNSYLVANIA

CITY           SKY/WX    TMP DP  RH WIND       PRES   REMARKS
ERIE           CLOUDY    76  61  59 NW10      29.83S
MEADVILLE      PTCLDY    76  53  44 W3        29.88S
FRANKLIN*      CLEAR     77  54  44 W6        29.89F
NEW CASTLE     FAIR      81  58  45 SW6       29.88S
BEAVER COUNTY  NOT AVBL
BUTLER*        CLEAR     79  55  44 W8        29.91S
PITTSBURGH INT PTCLDY    81  56  42 W6        29.89F
PITTSBURGH     PTCLDY    80  54  40 W7        29.90S
INDIANA*       PTCLDY    79  61  53 W7G14     29.93S
LATROBE        PTCLDY    77  59  53 W9        29.91S
WASHINGTON CO* NOT AVBL
$$

PAZ004>006-010>012-017>019-024>028-033>037-041-042-045-046-049>053-010100-
CENTRAL PENNSYLVANIA

CITY           SKY/WX    TMP DP  RH WIND       PRES   REMARKS
BRADFORD       CLEAR     74  56  53 CALM      29.89S
DUBOIS         CLEAR     77  57  50 W6        29.89S
CLEARFIELD     CLOUDY    77  56  48 W5        29.89R
JOHNSTOWN      CLOUDY    75  56  51 W9        29.95S
ALTOONA        CLEAR     76  58  53 W6        29.92R
STATE COLLEGE  CLEAR     75  63  64 SW8       29.87S
WILLIAMSPORT   PTCLDY   N/A N/A N/A SW8       29.80S
SELINSGROVE    CLEAR     73  69  87 CALM      29.83S
FT INDIANTOWN  CLEAR     79  63  58 W1        29.84S
CAPITAL CITY   CLEAR     83  60  45 SW3       29.84S
HARRISBURG     PTCLDY    82  66  58 SW6       29.83S
YORK           CLEAR     77  68  73 CALM      29.85S
$$

PAZ038>040-043-044-047-048-054-055-060>062-067>071-010100-
EASTERN PENNSYLVANIA

CITY           SKY/WX    TMP DP  RH WIND       PRES   REMARKS
SCRANTON       CLEAR     81  57  43 SW6       29.83S
MOUNT POCONO   CLEAR     74  57  55 W5        29.89F
ALLENTOWN      CLEAR     79  60  52 W7        29.82F
QUAKERTOWN*    CLEAR     81  61  50 CALM      29.84F
READING        CLEAR     83  60  45 W5        29.82F
LANCASTER      CLEAR     80  60  50 W7        29.84S
COATESVILLE    CLEAR     79  59  50 SW3       29.87S
POTTSTOWN      CLEAR     81  60  48 SW3       29.85S
BLUE BELL      CLEAR     81  59  47 CALM      29.83S
DOYLESTOWN     CLEAR     80  57  45 SW5       29.82F
WILLOW GROVE   NOT AVBL
NORTH PHILA    CLEAR     84  53  34 W7        29.83S
PHILADELPHIA   CLEAR     87  54  32 W9        29.83S
$$



USA.gov is the U.S. government's official web portal to all federal, state and local government web resources and services.